sat.trackr.live / text

‹ back to catalog

STARLINK-37368

NORAD 69253 · 2026-117R

PAYLOAD ACTIVE UNKNOWN

§ Identity

Operator
Country
US
Launch date
2026-05-29
Launch site
AFETR
Launch vehicle
Mass (kg)
RCS (m²)

Purposes: comms

External: N2YO · Heavens-Above · Gunter

§ Orbital elements

Epoch: 2026-09-19T05:13:24.316320Z

Period
93.85 min
Inclination
53.1563°
Eccentricity
0.0001197
Mean motion
15.34410270 rev/d
Perigee alt
461.9 km
Apogee alt
463.5 km
Semi-major
6,840.8 km
B*
5.2789e-4
RAAN
159.4729°
Arg perigee
87.5817°
Mean anomaly
272.5322°
Rev number
1,747

§ Raw data

STARLINK-373681 69253U 26117R   26262.21764255  .00017507  00000+0  52789-3 0  99952 69253  53.1563 159.4729 0001197  87.5817 272.5322 15.34410270 17470

JSON: /api/v1/satellites/69253 · /tle

For live sub-satellite position, see the globe view (requires WebGL).

§ Visibility from observer

Set your observer location to see the next 7 days of passes ≥ 10°. The values pass through the URL so the page stays shareable.

No JS? Fill the form by hand. The geolocation button needs JavaScript.